Location: ????????
(48.4751°N, 37.6926°E)
Time: 12:50:41
(UTC+00:00)

NOSS 3-1 (C) - Pass Details

Date: 20 January 2021
Orbit: 723 x 1485 km, 63.3° (Epoch: 22 February)

Event Time Altitude Azimuth Distance (km) Brightness Sun altitude
Rises 15:44:53 0° 316° (NW) 3,800 7.0 -15.5°
Reaches altitude 10° 15:47:26 10° 322° (NW) 2,951 6.3 -16.0°
Maximum altitude 15:54:23 50° 38° (NE) 1,540 4.2 -17.1°
Enters shadow 15:59:45 22° 104° (ESE) 2,585 5.2 -18.0°
